Tracking 23752 objects as of 23-Oct-2021
HD Live streaming from Space Station
objects crossing your sky now

CP5

Track CP5 now!
10-day predictions
CP5 is classified as:


NORAD ID: 38763
Int'l Code: 2012-048F
Perigee: 474.9 km
Apogee: 701.6 km
Inclination: 64.7 °
Period: 96.3 minutes
Semi major axis: 6959 km
RCS: Unknown
Launch date: September 13, 2012
Source: United States (US)
Launch site: AIR FORCE WESTERN TEST RANGE (AFWTR)

Uplink (MHz):
Downlink (MHz): 437.405
Beacon (MHz): 437.405
Mode: 1200bps AFSK CW
Call sign: CP5
Status: Inactive

aabbcc
Your satellite tracking list
Your tracking list is empty




NASA's NSSDC Master Catalog

Two Line Element Set (TLE):
1 38763U 12048F   21295.16959841 +.00001311 +00000+0 +10480-3 0  1818
2 38763  64.6625 112.6230 0162873 326.7346  32.3609 14.95403510 25643
Source of the keplerian elements: Caltech